When you browse on this site, cookies collect data to enhance your experience and personalize the content and advertising you see.
Visit our Privacy Policy to learn more. By continuing to use the site, you agree to this use of cookies and data.
  • en Suisse
  • Liste des pays
  • À 7 jours
  • Température de l'eau
  • Carte satellitaire
  • Carte météo
  • Widgets météo
  • user-avatar
    Se connecter

    Météo par heure à Tovste

    Ce jour, 21 Avril, Dimanche

    Heure Température Précipitation Vent Pression Humidité
    00:00 +6°C° 0 mm 2 m/s 756 mmHg 52%
    01:00 +7°C° 0 mm 1 m/s 756 mmHg 53%
    02:00 +6°C° 0 mm 1 m/s 756 mmHg 55%
    03:00 +6°C° 0 mm 1 m/s 756 mmHg 56%
    04:00 +6°C° 0 mm 1 m/s 756 mmHg 57%
    05:00 +5°C° 0 mm 1 m/s 756 mmHg 59%
    06:00 +6°C° 0 mm 2 m/s 756 mmHg 53%
    07:00 +8°C° 0 mm 2 m/s 756 mmHg 47%
    08:00 +10°C° 0 mm 3 m/s 757 mmHg 42%
    09:00 +11°C° 0 mm 3 m/s 757 mmHg 38%
    10:00 +12°C° 0 mm 3 m/s 757 mmHg 34%
    11:00 +13°C° 0 mm 4 m/s 757 mmHg 30%
    12:00 +13°C° 0 mm 4 m/s 757 mmHg 30%
    13:00 +14°C° 0 mm 4 m/s 756 mmHg 30%
    14:00 +14°C° 0 mm 4 m/s 756 mmHg 30%
    15:00 +14°C° 0 mm 4 m/s 756 mmHg 32%
    16:00 +13°C° 0 mm 3 m/s 756 mmHg 33%
    17:00 +13°C° 0 mm 3 m/s 756 mmHg 35%
    18:00 +12°C° 0 mm 3 m/s 756 mmHg 38%
    19:00 +11°C° 0 mm 3 m/s 756 mmHg 42%
    20:00 +11°C° 0 mm 3 m/s 757 mmHg 46%
    21:00 +10°C° 0 mm 3 m/s 757 mmHg 47%
    22:00 +9°C° 0 mm 3 m/s 757 mmHg 49%
    23:00 +9°C° 0 mm 3 m/s 757 mmHg 50%

    Demain, 22 Avril, Lundi

    Heure Température Précipitation Vent Pression Humidité
    00:00 +8°C° 0 mm 3 m/s 757 mmHg 52%
    01:00 +7°C° 0 mm 3 m/s 757 mmHg 54%
    02:00 +7°C° 0 mm 3 m/s 757 mmHg 56%
    03:00 +5°C° 0 mm 3 m/s 757 mmHg 58%
    04:00 +5°C° 0 mm 3 m/s 757 mmHg 59%
    05:00 +5°C° 0 mm 3 m/s 757 mmHg 61%
    06:00 +8°C° 0 mm 3 m/s 758 mmHg 56%
    07:00 +10°C° 0 mm 4 m/s 758 mmHg 50%
    08:00 +12°C° 0 mm 4 m/s 758 mmHg 45%
    09:00 +13°C° 0 mm 4 m/s 758 mmHg 42%
    10:00 +14°C° 0 mm 4 m/s 758 mmHg 39%
    11:00 +14°C° 0 mm 5 m/s 758 mmHg 36%
    12:00 +14°C° 0 mm 4 m/s 758 mmHg 36%
    13:00 +14°C° 0 mm 4 m/s 758 mmHg 36%
    14:00 +14°C° 0 mm 4 m/s 758 mmHg 36%
    15:00 +14°C° 0 mm 3 m/s 757 mmHg 39%
    16:00 +14°C° 0 mm 3 m/s 757 mmHg 41%
    17:00 +14°C° 0 mm 3 m/s 757 mmHg 43%
    18:00 +13°C° 0 mm 3 m/s 758 mmHg 47%
    19:00 +13°C° 0 mm 2 m/s 758 mmHg 50%
    20:00 +12°C° 0 mm 2 m/s 758 mmHg 53%
    21:00 +12°C° 0 mm 2 m/s 758 mmHg 55%
    22:00 +12°C° 0 mm 2 m/s 759 mmHg 56%
    23:00 +12°C° 0 mm 2 m/s 759 mmHg 58%

    Après-demain, 23 Avril, Mardi

    Heure Température Précipitation Vent Pression Humidité
    00:00 +10°C° 0 mm 2 m/s 759 mmHg 59%
    01:00 +10°C° 0 mm 2 m/s 759 mmHg 61%
    02:00 +10°C° 0 mm 2 m/s 759 mmHg 62%
    03:00 +10°C° 0 mm 2 m/s 759 mmHg 64%
    04:00 +9°C° 0 mm 2 m/s 759 mmHg 65%
    05:00 +9°C° 0 mm 2 m/s 760 mmHg 67%
    06:00 +10°C° 0 mm 2 m/s 760 mmHg 62%
    07:00 +13°C° 0 mm 2 m/s 760 mmHg 58%
    08:00 +13°C° 0 mm 3 m/s 760 mmHg 53%
    09:00 +13°C° 0 mm 3 m/s 760 mmHg 49%
    10:00 +14°C° 0 mm 3 m/s 760 mmHg 45%
    11:00 +14°C° 0 mm 3 m/s 760 mmHg 40%
    12:00 +16°C° 0 mm 3 m/s 760 mmHg 40%
    13:00 +16°C° 0 mm 3 m/s 760 mmHg 39%
    14:00 +16°C° 0 mm 2 m/s 760 mmHg 38%
    15:00 +16°C° 0 mm 2 m/s 760 mmHg 40%
    16:00 +16°C° 0 mm 2 m/s 760 mmHg 41%
    17:00 +16°C° 0 mm 2 m/s 760 mmHg 42%
    18:00 +14°C° 0 mm 2 m/s 760 mmHg 46%
    19:00 +13°C° 0 mm 1 m/s 760 mmHg 50%
    20:00 +12°C° 0 mm 1 m/s 760 mmHg 54%
    21:00 +12°C° 0 mm 1 m/s 761 mmHg 55%
    22:00 +12°C° 0 mm 1 m/s 761 mmHg 56%
    23:00 +11°C° 0 mm 0 m/s 761 mmHg 57%

    24 Avril, Mercredi

    Heure Température Précipitation Vent Pression Humidité
    00:00 +11°C° 0 mm 0 m/s 761 mmHg 58%
    01:00 +10°C° 0 mm 0 m/s 761 mmHg 60%
    02:00 +10°C° 0 mm 0 m/s 761 mmHg 61%
    03:00 +11°C° 0 mm 1 m/s 761 mmHg 62%
    04:00 +11°C° 0 mm 1 m/s 761 mmHg 63%
    05:00 +11°C° 0 mm 1 m/s 761 mmHg 63%
    06:00 +12°C° 0 mm 2 m/s 761 mmHg 58%
    07:00 +14°C° 0 mm 2 m/s 761 mmHg 53%
    08:00 +14°C° 0 mm 3 m/s 761 mmHg 48%
    09:00 +16°C° 0 mm 3 m/s 761 mmHg 44%
    10:00 +17°C° 0 mm 3 m/s 761 mmHg 40%
    11:00 +18°C° 0 mm 3 m/s 761 mmHg 37%
    12:00 +19°C° 0 mm 3 m/s 760 mmHg 36%
    13:00 +19°C° 0 mm 3 m/s 760 mmHg 34%
    14:00 +20°C° 0 mm 2 m/s 760 mmHg 33%
    15:00 +19°C° 0 mm 2 m/s 760 mmHg 36%
    16:00 +19°C° 0 mm 2 m/s 759 mmHg 39%
    17:00 +19°C° 0 mm 2 m/s 759 mmHg 41%
    18:00 +18°C° 0 mm 2 m/s 759 mmHg 45%
    19:00 +17°C° 0 mm 2 m/s 759 mmHg 49%
    20:00 +15°C° 0 mm 2 m/s 759 mmHg 52%
    21:00 +15°C° 0 mm 2 m/s 759 mmHg 54%
    22:00 +15°C° 0 mm 2 m/s 759 mmHg 55%
    23:00 +15°C° 0 mm 2 m/s 759 mmHg 57%

    25 Avril, Jeudi

    Heure Température Précipitation Vent Pression Humidité
    00:00 +14°C° 0 mm 2 m/s 759 mmHg 59%
    01:00 +14°C° 0 mm 2 m/s 759 mmHg 61%
    02:00 +14°C° 0 mm 2 m/s 759 mmHg 63%
    03:00 +13°C° 0 mm 2 m/s 759 mmHg 65%
    04:00 +13°C° 0 mm 2 m/s 759 mmHg 67%
    05:00 +13°C° 0 mm 2 m/s 759 mmHg 68%
    06:00 +15°C° 0 mm 2 m/s 760 mmHg 64%
    07:00 +16°C° 0 mm 2 m/s 760 mmHg 60%
    08:00 +18°C° 0 mm 2 m/s 760 mmHg 56%
    09:00 +19°C° 0 mm 2 m/s 760 mmHg 52%
    10:00 +20°C° 0 mm 2 m/s 759 mmHg 47%
    11:00 +21°C° 0 mm 2 m/s 759 mmHg 42%
    12:00 +23°C° 0 mm 2 m/s 759 mmHg 41%
    13:00 +23°C° 0 mm 2 m/s 759 mmHg 41%
    14:00 +23°C° 0 mm 1 m/s 759 mmHg 40%
    15:00 +22°C° 0 mm 1 m/s 758 mmHg 43%
    16:00 +22°C° 0 mm 1 m/s 758 mmHg 46%
    17:00 +22°C° 0 mm 1 m/s 758 mmHg 49%
    18:00 +21°C° 0 mm 1 m/s 758 mmHg 50%
    19:00 +20°C° 0 mm 1 m/s 758 mmHg 52%
    20:00 +18°C° 0 mm 2 m/s 758 mmHg 54%
    21:00 +17°C° 0 mm 2 m/s 758 mmHg 56%
    22:00 +18°C° 0 mm 1 m/s 758 mmHg 59%
    23:00 +16°C° 0 mm 1 m/s 757 mmHg 61%

    26 Avril, Vendredi

    Heure Température Précipitation Vent Pression Humidité
    00:00 +16°C° 0 mm 1 m/s 757 mmHg 62%
    01:00 +16°C° 0 mm 1 m/s 757 mmHg 62%
    02:00 +16°C° 0 mm 2 m/s 757 mmHg 63%
    03:00 +15°C° 0 mm 1 m/s 757 mmHg 64%
    04:00 +15°C° 0 mm 1 m/s 757 mmHg 65%
    05:00 +15°C° 0 mm 1 m/s 757 mmHg 66%
    06:00 +16°C° 0 mm 1 m/s 757 mmHg 62%
    07:00 +19°C° 0 mm 1 m/s 757 mmHg 58%
    08:00 +18°C° 0 mm 0 m/s 757 mmHg 55%
    09:00 +21°C° 0 mm 1 m/s 757 mmHg 49%
    10:00 +22°C° 0 mm 1 m/s 756 mmHg 44%
    11:00 +23°C° 0 mm 1 m/s 756 mmHg 39%
    12:00 +23°C° 0 mm 2 m/s 756 mmHg 40%
    13:00 +23°C° 0 mm 2 m/s 756 mmHg 41%
    14:00 +22°C° 0 mm 3 m/s 755 mmHg 42%
    15:00 +21°C° 0 mm 3 m/s 755 mmHg 43%
    16:00 +21°C° 0 mm 3 m/s 755 mmHg 43%
    17:00 +21°C° 0 mm 3 m/s 754 mmHg 44%
    18:00 +20°C° 0 mm 3 m/s 754 mmHg 48%
    19:00 +18°C° 0 mm 2 m/s 754 mmHg 52%
    20:00 +17°C° 0 mm 2 m/s 754 mmHg 56%
    21:00 +16°C° 0 mm 2 m/s 754 mmHg 59%
    22:00 +15°C° 0 mm 2 m/s 754 mmHg 61%
    23:00 +13°C° 0 mm 3 m/s 754 mmHg 64%
    Voir plus